Newark, NJ

7:07 PM EDT on October 13, 2019 (GMT -0400)
Newark International

Weather History for KEWR - May, 2019

Change the Weather History Date:

Sunday, May 5, 2019

  Actual Average Record
Temperature  
Mean Temperature 55 °F 59 °F  
Max Temperature 58 °F 69 °F 94 °F (1949)
Min Temperature 52 °F 50 °F 38 °F (1966)
Degree Days  
Heating Degree Days 10 7  
Month to date heating degree days 36 36  
Since 1 July heating degree days 4630 4756  
Cooling Degree Days 0 1  
Month to date cooling degree days 0 5  
Year to date cooling degree days 15 17  
Growing Degree Days 4 (Base 50)    
Moisture  
Dew Point 54 °F    
Average Humidity 97    
Maximum Humidity 100    
Minimum Humidity 93    
Precipitation  
Precipitation 1.53 in 0.13 in 3.05 in (2017)
Month to date precipitation 1.76 0.61  
Year to date precipitation 17.41 15.41  
Snow  
Snow 0.00 in 0.00 in 0.00 in (2002)
Month to date snowfall 0.0 0.0  
Since 1 July snowfall 22.0 28.5  
Snow Depth 0.00 in    
Sea Level Pressure  
Sea Level Pressure 29.82 in    
Wind  
Wind Speed 10 mph (NE)    
Max Wind Speed 20 mph    
Max Gust Speed 26 mph    
Visibility 5 miles    
Events Rain    
T = Trace of Precipitation, MM = Missing Value Source: NWS Daily Summary

Daily Weather History Graph

Daily Weather History Graph

Search for Another Location

Airport or City:

Astronomy

May. 05, 2019 Rise Set
Actual Time 5:50 AM EDT 7:56 PM EDT
Civil Twilight 5:20 AM EDT 8:26 PM EDT
Nautical Twilight 4:43 AM EDT 9:03 PM EDT
Astronomical Twilight 4:03 AM EDT 9:44 PM EDT
Moon 6:34 AM EDT (5/5) 8:47 PM EDT (5/5)
Length of Visible Light 15h 06m
Length of Day
14h 05m
New Moon, 1% of the Moon is Illuminated
May 5
New Moon
May 11
First Quarter
May 18
Full
May 26
Last Quarter
Jun 3
New

Hourly Weather History & Observations

Time (EDT) Temp. Dew Point Humidity Pressure Visibility Wind Dir Wind Speed Gust Speed Precip Events Conditions
12:51 AM 55.0 °F 54.0 °F 96% 29.83 in 3.0 mi Calm Calm - 0.00 in Rain Light Rain
1:08 AM 55.9 °F 55.0 °F 97% 29.84 in 2.5 mi Calm Calm - 0.00 in Rain Light Rain
1:51 AM 55.9 °F 55.0 °F 97% 29.84 in 2.5 mi Calm Calm - 0.03 in Rain Rain
2:19 AM 55.9 °F 55.0 °F 97% 29.83 in 3.0 mi Calm Calm - 0.03 in Rain Light Rain
2:51 AM 55.9 °F 55.0 °F 97% 29.82 in 4.0 mi Calm Calm - 0.06 in Rain Light Rain
3:10 AM 57.0 °F 55.0 °F 93% 29.82 in 4.0 mi Calm Calm - 0.01 in Rain Light Rain
3:51 AM 57.0 °F 55.0 °F 93% 29.81 in 4.0 mi NE 4.6 mph - 0.06 in Rain Light Rain
4:51 AM 57.0 °F 55.9 °F 96% 29.80 in 3.0 mi North 5.8 mph - 0.11 in Rain Rain
5:51 AM 57.9 °F 57.0 °F 97% 29.80 in 3.0 mi North 4.6 mph - 0.17 in Rain Rain
6:04 AM 57.9 °F 57.0 °F 97% 29.80 in 3.0 mi NE 8.1 mph - 0.03 in Rain Rain
6:51 AM 57.0 °F 55.9 °F 96% 29.82 in 4.0 mi NE 9.2 mph - 0.13 in Rain Rain
7:18 AM 55.9 °F 55.0 °F 97% 29.81 in 4.0 mi NNE 9.2 mph - 0.09 in Rain Rain
7:34 AM 55.9 °F 55.0 °F 97% 29.81 in 6.0 mi NNE 6.9 mph - 0.11 in Rain Light Rain
7:51 AM 55.9 °F 55.0 °F 97% 29.81 in 6.0 mi NE 11.5 mph - 0.11 in Rain Light Rain
8:09 AM 55.9 °F 55.0 °F 97% 29.82 in 4.0 mi NE 10.4 mph - 0.01 in Rain Light Rain
8:51 AM 55.9 °F 55.0 °F 97% 29.83 in 6.0 mi NNE 10.4 mph - 0.08 in Rain Light Rain
9:07 AM 55.9 °F 55.0 °F 97% 29.83 in 7.0 mi NNE 10.4 mph - 0.00 in Rain Light Rain
9:51 AM 57.0 °F 55.0 °F 93% 29.83 in 8.0 mi ENE 4.6 mph - 0.02 in Rain Light Rain
10:51 AM 55.9 °F 55.0 °F 97% 29.83 in 7.0 mi ENE 8.1 mph - 0.03 in Rain Light Rain
11:51 AM 57.0 °F 55.0 °F 93% 29.83 in 5.0 mi ENE 8.1 mph - 0.02 in Rain Light Rain
12:51 PM 55.9 °F 54.0 °F 93% 29.81 in 5.0 mi NE 12.7 mph - 0.06 in Rain Light Rain
1:51 PM 55.0 °F 53.1 °F 93% 29.81 in 5.0 mi NNE 11.5 mph - 0.04 in Rain Light Rain
2:51 PM 54.0 °F 52.0 °F 93% 29.81 in 9.0 mi NNE 13.8 mph - 0.01 in Rain Light Rain
3:51 PM 54.0 °F 51.1 °F 90% 29.79 in 10.0 mi NE 13.8 mph 23.0 mph 0.00 in   Overcast
4:51 PM 53.1 °F 51.1 °F 93% 29.79 in 7.0 mi NE 12.7 mph - 0.01 in Rain Light Rain
5:51 PM 52.0 °F 50.0 °F 93% 29.80 in 9.0 mi NE 16.1 mph 25.3 mph 0.02 in Rain Light Rain
6:51 PM 52.0 °F 50.0 °F 93% 29.82 in 3.0 mi NNE 13.8 mph - 0.10 in Rain Rain
7:51 PM 52.0 °F 51.1 °F 97% 29.82 in 5.0 mi NNE 12.7 mph - 0.13 in Rain Rain
8:48 PM 51.8 °F 50.0 °F 94% 29.86 in 5.0 mi NNE 10.4 mph - 0.12 in Rain Rain
8:51 PM 52.0 °F 51.1 °F 97% 29.86 in 5.0 mi NNE 12.7 mph - 0.13 in Rain Rain
9:51 PM 52.0 °F 51.1 °F 97% 29.86 in 6.0 mi NE 10.4 mph - 0.14 in Rain Light Rain
10:51 PM 53.1 °F 51.1 °F 93% 29.83 in 9.0 mi NNE 9.2 mph - 0.02 in Rain Light Rain
11:06 PM 53.1 °F 51.1 °F 93% 29.81 in 8.0 mi NE 11.5 mph - 0.02 in Rain Light Rain
11:51 PM 53.1 °F 51.1 °F 93% 29.82 in 8.0 mi NE 16.1 mph 20.7 mph 0.04 in Rain Light Rain